THOR 5

Last updated on Sun Apr 12 2026 00:02:51 GMT+0000 (Coordinated Universal Time)

1 32487U 08006A 26101.37797644 -.00000007 00000+0 00000+0 0 9991 2 32487 0.0292 247.2578 0002556 143.5261 304.1348 1.00272558 66649
UTC large
Height (km)
Speed (km/s)
/
Latitude / Longitude
Inclination (degrees)
Orbital Period (minutes)
Azimuth
Elevation
Range (km)
Doppler Factor

Next 0 passes for location: London (51.5072 / 0.1276)

Sorry there are no passes over London.
THOR 5